Time,TemperatureF,DewpointF,PressureIn,WindDirection,WindDirectionDegrees,WindSpeedMPH,WindSpeedGustMPH,Humidity,HourlyPrecipIn,Conditions,Clouds,dailyrainin,SoftwareType,DateUTC
2013-12-06 00:01:00,52.4,52.0,30.04,WSW,247,9.1,13.0,100,0.00,,,0.00,Rainwise IP-100,2013-12-06 05:01:00,
2013-12-06 00:06:00,52.3,52.0,30.03,WSW,247,10.3,13.0,100,0.00,,,0.00,Rainwise IP-100,2013-12-06 05:06:00,
2013-12-06 00:11:00,52.5,53.0,30.03,WSW,247,13.1,17.0,100,0.00,,,0.00,Rainwise IP-100,2013-12-06 05:11:00,
2013-12-06 00:16:00,52.7,53.0,30.02,WSW,247,18.7,18.7,100,0.00,,,0.00,Rainwise IP-100,2013-12-06 05:16:00,
2013-12-06 00:21:00,52.9,53.0,30.03,WSW,247,11.0,20.0,100,0.00,,,0.00,Rainwise IP-100,2013-12-06 05:21:00,
2013-12-06 00:26:00,52.9,53.0,30.02,WSW,247,13.3,16.0,100,0.00,,,0.00,Rainwise IP-100,2013-12-06 05:26:00,
2013-12-06 00:31:00,52.8,53.0,30.02,WSW,247,12.8,17.0,100,0.00,,,0.00,Rainwise IP-100,2013-12-06 05:31:00,
2013-12-06 00:36:00,52.7,53.0,30.03,WSW,247,12.4,18.0,100,0.00,,,0.00,Rainwise IP-100,2013-12-06 05:36:00,
2013-12-06 00:41:00,52.7,53.0,30.02,WSW,247,12.1,18.0,100,0.00,,,0.00,Rainwise IP-100,2013-12-06 05:41:00,
2013-12-06 00:46:00,52.6,53.0,30.02,WSW,247,12.1,16.0,100,0.00,,,0.00,Rainwise IP-100,2013-12-06 05:46:00,
2013-12-06 00:51:00,52.5,53.0,30.02,WSW,247,10.7,15.0,100,0.00,,,0.00,Rainwise IP-100,2013-12-06 05:51:00,
2013-12-06 00:56:00,52.5,53.0,30.01,WSW,247,12.6,15.0,100,0.00,,,0.00,Rainwise IP-100,2013-12-06 05:56:00,
2013-12-06 01:01:00,52.4,52.0,30.01,WSW,247,11.0,14.0,100,0.00,,,0.00,Rainwise IP-100,2013-12-06 06:01:00,
2013-12-06 01:06:00,52.2,52.0,30.00,WSW,247,10.0,12.0,100,0.00,,,0.00,Rainwise IP-100,2013-12-06 06:06:00,
2013-12-06 01:11:00,52.1,52.0,30.00,WSW,247,9.6,13.0,100,0.00,,,0.00,Rainwise IP-100,2013-12-06 06:11:00,
2013-12-06 01:16:00,52.1,52.0,30.01,WSW,247,11.4,14.0,100,0.00,,,0.00,Rainwise IP-100,2013-12-06 06:16:00,
2013-12-06 01:21:00,52.2,52.0,30.01,WSW,247,12.1,15.0,100,0.00,,,0.00,Rainwise IP-100,2013-12-06 06:21:00,
2013-12-06 01:26:00,52.1,52.0,30.01,WSW,247,10.7,15.0,100,0.00,,,0.00,Rainwise IP-100,2013-12-06 06:26:00,
2013-12-06 01:31:00,52.2,52.0,30.01,WSW,247,12.4,15.0,100,0.00,,,0.00,Rainwise IP-100,2013-12-06 06:31:00,
2013-12-06 01:36:00,52.3,52.0,30.01,WSW,247,14.0,15.0,100,0.00,,,0.00,Rainwise IP-100,2013-12-06 06:36:00,
2013-12-06 01:41:00,52.3,52.0,30.02,WSW,247,11.7,18.0,100,0.00,,,0.00,Rainwise IP-100,2013-12-06 06:41:00,
2013-12-06 01:46:00,52.3,52.0,30.02,WSW,247,9.8,16.0,100,0.00,,,0.00,Rainwise IP-100,2013-12-06 06:46:00,
2013-12-06 01:51:00,52.2,52.0,30.02,WSW,247,13.8,14.0,100,0.00,,,0.00,Rainwise IP-100,2013-12-06 06:51:00,
2013-12-06 01:56:00,52.0,52.0,30.01,WSW,247,15.9,17.0,100,0.00,,,0.00,Rainwise IP-100,2013-12-06 06:56:00,
2013-12-06 02:01:00,52.2,52.0,30.01,WSW,247,13.5,17.0,100,0.00,,,0.00,Rainwise IP-100,2013-12-06 07:01:00,
2013-12-06 02:06:00,52.3,52.0,30.02,WSW,247,12.1,18.0,100,0.00,,,0.00,Rainwise IP-100,2013-12-06 07:06:00,
2013-12-06 02:11:00,52.2,52.0,30.01,WSW,247,11.0,15.0,100,0.00,,,0.00,Rainwise IP-100,2013-12-06 07:11:00,
2013-12-06 02:16:00,52.1,52.0,30.01,WSW,247,8.9,13.0,100,0.00,,,0.00,Rainwise IP-100,2013-12-06 07:16:00,
2013-12-06 02:21:00,52.0,52.0,30.01,WSW,247,10.3,13.0,100,0.00,,,0.00,Rainwise IP-100,2013-12-06 07:21:00,
2013-12-06 02:26:00,52.0,52.0,30.01,WSW,247,11.2,16.0,100,0.00,,,0.00,Rainwise IP-100,2013-12-06 07:26:00,
2013-12-06 02:31:00,52.1,52.0,30.01,WSW,247,10.0,13.0,100,0.00,,,0.00,Rainwise IP-100,2013-12-06 07:31:00,
2013-12-06 02:36:00,52.1,52.0,30.00,WSW,247,10.3,15.0,100,0.00,,,0.00,Rainwise IP-100,2013-12-06 07:36:00,
2013-12-06 02:41:00,52.1,52.0,30.00,WSW,247,12.4,14.0,100,0.00,,,0.00,Rainwise IP-100,2013-12-06 07:41:00,
2013-12-06 02:46:00,52.2,52.0,30.00,WSW,247,14.2,17.0,100,0.00,,,0.00,Rainwise IP-100,2013-12-06 07:46:00,
2013-12-06 02:51:00,52.5,53.0,30.00,WSW,247,11.4,18.0,100,0.00,,,0.00,Rainwise IP-100,2013-12-06 07:51:00,
2013-12-06 02:56:00,52.8,53.0,29.99,WSW,247,15.4,17.0,100,0.00,,,0.00,Rainwise IP-100,2013-12-06 07:56:00,
2013-12-06 03:01:00,52.8,53.0,29.98,WSW,247,16.6,18.0,100,0.00,,,0.00,Rainwise IP-100,2013-12-06 08:01:00,
2013-12-06 03:06:00,52.9,53.0,29.99,WSW,247,13.1,19.0,100,0.00,,,0.00,Rainwise IP-100,2013-12-06 08:06:00,
2013-12-06 03:11:00,52.8,53.0,29.99,WSW,247,11.7,16.0,100,0.00,,,0.00,Rainwise IP-100,2013-12-06 08:11:00,
2013-12-06 03:16:00,52.8,53.0,29.98,West,270,12.4,17.0,100,0.00,,,0.00,Rainwise IP-100,2013-12-06 08:16:00,
2013-12-06 03:21:00,52.8,53.0,29.99,WSW,247,10.5,16.0,100,0.00,,,0.00,Rainwise IP-100,2013-12-06 08:21:00,
2013-12-06 03:26:00,52.8,53.0,29.98,WSW,247,12.4,18.0,100,0.00,,,0.00,Rainwise IP-100,2013-12-06 08:26:00,
2013-12-06 03:31:00,53.0,53.0,29.97,WSW,247,16.8,16.8,100,0.00,,,0.00,Rainwise IP-100,2013-12-06 08:31:00,
2013-12-06 03:36:00,53.2,53.0,29.97,WSW,247,12.6,19.0,100,0.00,,,0.00,Rainwise IP-100,2013-12-06 08:36:00,
2013-12-06 03:41:00,53.3,53.0,29.98,WSW,247,12.4,18.0,100,0.00,,,0.00,Rainwise IP-100,2013-12-06 08:41:00,
2013-12-06 03:46:00,53.4,53.0,29.98,WSW,247,15.4,19.0,100,0.00,,,0.00,Rainwise IP-100,2013-12-06 08:46:00,
2013-12-06 03:51:00,53.5,53.0,29.98,WSW,247,12.4,18.0,100,0.00,,,0.00,Rainwise IP-100,2013-12-06 08:51:00,
2013-12-06 03:56:00,53.4,53.0,29.98,WSW,247,18.7,18.7,100,0.00,,,0.00,Rainwise IP-100,2013-12-06 08:56:00,
2013-12-06 04:01:00,53.2,53.0,29.98,WSW,247,14.2,19.0,100,0.00,,,0.00,Rainwise IP-100,2013-12-06 09:01:00,
2013-12-06 04:06:00,53.4,53.0,29.98,WSW,247,14.5,20.0,100,0.00,,,0.00,Rainwise IP-100,2013-12-06 09:06:00,
2013-12-06 04:11:00,53.5,53.0,29.98,WSW,247,12.4,17.0,100,0.00,,,0.00,Rainwise IP-100,2013-12-06 09:11:00,
2013-12-06 04:17:00,53.2,53.0,29.98,WSW,247,12.8,15.0,100,0.00,,,0.00,Rainwise IP-100,2013-12-06 09:17:00,
2013-12-06 04:22:00,53.1,53.0,29.97,West,270,14.7,21.0,100,0.00,,,0.00,Rainwise IP-100,2013-12-06 09:22:00,
2013-12-06 04:27:00,53.3,53.0,29.97,WSW,247,13.8,18.0,100,0.00,,,0.00,Rainwise IP-100,2013-12-06 09:27:00,
2013-12-06 04:32:00,53.5,53.0,29.98,WSW,247,19.6,20.0,100,0.00,,,0.00,Rainwise IP-100,2013-12-06 09:32:00,
2013-12-06 04:37:00,53.6,53.0,29.98,WSW,247,12.6,19.0,100,0.00,,,0.00,Rainwise IP-100,2013-12-06 09:37:00,
2013-12-06 04:42:00,53.7,53.0,29.98,West,270,13.5,18.0,100,0.00,,,0.00,Rainwise IP-100,2013-12-06 09:42:00,
2013-12-06 04:47:00,53.6,53.0,29.98,WSW,247,15.4,18.0,100,0.00,,,0.00,Rainwise IP-100,2013-12-06 09:47:00,
2013-12-06 04:52:00,53.7,53.0,29.98,WSW,247,18.2,23.0,100,0.00,,,0.00,Rainwise IP-100,2013-12-06 09:52:00,
2013-12-06 04:57:00,53.8,53.0,29.98,WSW,247,13.1,22.0,100,0.00,,,0.00,Rainwise IP-100,2013-12-06 09:57:00,
2013-12-06 05:02:00,54.0,54.0,29.98,WSW,247,15.2,20.0,100,0.00,,,0.00,Rainwise IP-100,2013-12-06 10:02:00,
2013-12-06 05:07:00,53.9,54.0,29.98,West,270,13.5,19.0,100,0.00,,,0.00,Rainwise IP-100,2013-12-06 10:07:00,
2013-12-06 05:12:00,53.7,53.0,29.98,WSW,247,14.9,19.0,100,0.00,,,0.00,Rainwise IP-100,2013-12-06 10:12:00,
2013-12-06 05:17:00,53.7,53.0,29.98,West,270,12.6,18.0,100,0.00,,,0.00,Rainwise IP-100,2013-12-06 10:17:00,
2013-12-06 05:22:00,53.7,53.0,29.97,WNW,292,9.6,17.0,100,0.00,,,0.00,Rainwise IP-100,2013-12-06 10:22:00,
2013-12-06 05:27:00,53.0,53.0,29.97,WNW,292,11.9,13.0,100,0.00,,,0.00,Rainwise IP-100,2013-12-06 10:27:00,
2013-12-06 05:32:00,51.8,52.0,29.97,WNW,292,11.9,13.0,100,0.00,,,0.00,Rainwise IP-100,2013-12-06 10:32:00,
2013-12-06 05:37:00,51.3,51.0,29.98,WNW,292,11.9,15.0,100,0.00,,,0.00,Rainwise IP-100,2013-12-06 10:37:00,
2013-12-06 05:42:00,51.4,51.0,29.98,West,270,11.9,14.0,100,0.00,,,0.00,Rainwise IP-100,2013-12-06 10:42:00,
2013-12-06 05:47:00,51.8,52.0,29.98,WSW,247,12.1,14.0,100,0.00,,,0.00,Rainwise IP-100,2013-12-06 10:47:00,
2013-12-06 05:52:00,52.3,52.0,29.97,WSW,247,13.1,15.0,100,0.00,,,0.00,Rainwise IP-100,2013-12-06 10:52:00,
2013-12-06 05:57:00,52.9,53.0,29.97,WSW,247,8.9,14.0,100,0.00,,,0.00,Rainwise IP-100,2013-12-06 10:57:00,
2013-12-06 06:02:00,53.5,53.0,29.98,WSW,247,12.4,18.0,100,0.00,,,0.00,Rainwise IP-100,2013-12-06 11:02:00,
2013-12-06 06:07:00,53.8,53.0,29.98,WSW,247,14.7,16.0,100,0.00,,,0.00,Rainwise IP-100,2013-12-06 11:07:00,
2013-12-06 06:12:00,53.9,54.0,29.98,WSW,247,15.6,18.0,100,0.00,,,0.00,Rainwise IP-100,2013-12-06 11:12:00,
2013-12-06 06:17:00,53.9,54.0,29.98,WSW,247,13.8,19.0,100,0.00,,,0.00,Rainwise IP-100,2013-12-06 11:17:00,
2013-12-06 06:22:00,53.8,53.0,29.98,WSW,247,14.5,18.0,100,0.00,,,0.00,Rainwise IP-100,2013-12-06 11:22:00,
2013-12-06 06:27:00,53.7,53.0,29.98,WSW,247,12.1,18.0,100,0.00,,,0.00,Rainwise IP-100,2013-12-06 11:27:00,
2013-12-06 06:32:00,53.6,53.0,29.98,WSW,247,11.9,15.0,100,0.00,,,0.00,Rainwise IP-100,2013-12-06 11:32:00,
2013-12-06 06:37:00,53.4,53.0,29.98,WSW,247,13.5,14.0,100,0.00,,,0.00,Rainwise IP-100,2013-12-06 11:37:00,
2013-12-06 06:42:00,53.3,53.0,29.98,WSW,247,12.4,15.0,100,0.00,,,0.00,Rainwise IP-100,2013-12-06 11:42:00,
2013-12-06 06:47:00,53.2,53.0,29.99,WSW,247,13.5,14.0,100,0.00,,,0.00,Rainwise IP-100,2013-12-06 11:47:00,
2013-12-06 06:52:00,53.2,53.0,30.00,WSW,247,13.5,17.0,100,0.00,,,0.00,Rainwise IP-100,2013-12-06 11:52:00,
2013-12-06 06:57:00,53.1,53.0,30.00,WSW,247,16.6,16.6,100,0.00,,,0.00,Rainwise IP-100,2013-12-06 11:57:00,
2013-12-06 07:02:00,53.1,53.0,30.00,WSW,247,13.5,17.0,100,0.00,,,0.00,Rainwise IP-100,2013-12-06 12:02:00,
2013-12-06 07:07:00,53.2,53.0,30.00,WSW,247,13.5,18.0,100,0.00,,,0.00,Rainwise IP-100,2013-12-06 12:07:00,
2013-12-06 07:12:00,53.3,53.0,30.00,WSW,247,15.2,21.0,100,0.00,,,0.00,Rainwise IP-100,2013-12-06 12:12:00,
2013-12-06 07:17:00,53.2,53.0,30.00,West,270,12.8,21.0,100,0.00,,,0.00,Rainwise IP-100,2013-12-06 12:17:00,
2013-12-06 07:22:00,53.3,53.0,29.99,WSW,247,14.2,19.0,100,0.00,,,0.00,Rainwise IP-100,2013-12-06 12:22:00,
2013-12-06 07:27:00,53.3,53.0,29.99,WSW,247,11.2,19.0,100,0.00,,,0.00,Rainwise IP-100,2013-12-06 12:27:00,
2013-12-06 07:32:00,53.2,53.0,29.98,WSW,247,12.6,16.0,100,0.00,,,0.00,Rainwise IP-100,2013-12-06 12:32:00,
2013-12-06 07:37:00,53.2,53.0,29.98,WSW,247,13.1,15.0,100,0.00,,,0.00,Rainwise IP-100,2013-12-06 12:37:00,
2013-12-06 07:42:00,53.2,53.0,29.99,WSW,247,10.7,15.0,100,0.00,,,0.00,Rainwise IP-100,2013-12-06 12:42:00,
2013-12-06 07:47:00,53.2,53.0,30.00,WSW,247,14.0,17.0,100,0.00,,,0.00,Rainwise IP-100,2013-12-06 12:47:00,
2013-12-06 07:52:00,53.2,53.0,29.99,WSW,247,13.3,17.0,100,0.00,,,0.00,Rainwise IP-100,2013-12-06 12:52:00,
2013-12-06 07:57:00,53.2,53.0,29.99,WSW,247,13.8,17.0,100,0.00,,,0.00,Rainwise IP-100,2013-12-06 12:57:00,
2013-12-06 08:02:00,53.3,53.0,30.00,WSW,247,16.1,19.0,100,0.00,,,0.00,Rainwise IP-100,2013-12-06 13:02:00,
2013-12-06 08:07:00,53.4,53.0,29.99,WSW,247,17.3,19.0,100,0.00,,,0.00,Rainwise IP-100,2013-12-06 13:07:00,
2013-12-06 08:12:00,53.6,53.0,30.00,WSW,247,13.3,18.0,100,0.00,,,0.00,Rainwise IP-100,2013-12-06 13:12:00,
2013-12-06 08:17:00,53.5,53.0,29.99,West,270,13.3,18.0,100,0.00,,,0.00,Rainwise IP-100,2013-12-06 13:17:00,
2013-12-06 08:22:00,53.4,53.0,29.99,WSW,247,14.7,20.0,100,0.00,,,0.00,Rainwise IP-100,2013-12-06 13:22:00,
2013-12-06 08:27:00,53.4,53.0,30.01,West,270,18.7,18.7,100,0.00,,,0.00,Rainwise IP-100,2013-12-06 13:27:00,
2013-12-06 08:32:00,53.3,53.0,30.02,WNW,292,21.0,23.0,100,0.00,,,0.00,Rainwise IP-100,2013-12-06 13:32:00,
2013-12-06 08:37:00,52.0,52.0,30.02,NW,315,15.6,22.0,100,0.00,,,0.00,Rainwise IP-100,2013-12-06 13:37:00,
2013-12-06 08:42:00,50.4,50.0,30.02,NW,315,12.1,16.0,100,0.06,,,0.01,Rainwise IP-100,2013-12-06 13:42:00,
2013-12-06 08:47:00,49.9,50.0,30.02,WNW,292,7.9,12.0,100,0.06,,,0.01,Rainwise IP-100,2013-12-06 13:47:00,
2013-12-06 08:52:00,49.6,50.0,30.02,WNW,292,5.6,8.0,100,0.06,,,0.02,Rainwise IP-100,2013-12-06 13:52:00,
2013-12-06 08:57:00,49.2,49.0,30.02,NNW,337,2.3,6.0,100,0.06,,,0.02,Rainwise IP-100,2013-12-06 13:57:00,
2013-12-06 09:02:00,49.6,50.0,30.03,NE,45,6.3,9.0,100,0.00,,,0.02,Rainwise IP-100,2013-12-06 14:02:00,
2013-12-06 09:07:00,50.6,50.0,30.03,NE,45,2.8,13.0,100,0.00,,,0.02,Rainwise IP-100,2013-12-06 14:07:00,
2013-12-06 09:12:00,51.1,51.0,30.03,ENE,67,4.7,8.0,100,0.00,,,0.02,Rainwise IP-100,2013-12-06 14:12:00,
2013-12-06 09:17:00,51.0,51.0,30.04,ENE,67,0.0,6.0,100,0.00,,,0.02,Rainwise IP-100,2013-12-06 14:17:00,
2013-12-06 09:22:00,50.8,50.0,30.05,NNW,337,2.8,4.0,100,0.00,,,0.02,Rainwise IP-100,2013-12-06 14:22:00,
2013-12-06 09:27:00,50.6,50.0,30.05,WSW,247,1.6,6.0,100,0.00,,,0.02,Rainwise IP-100,2013-12-06 14:27:00,
2013-12-06 09:32:00,50.3,50.0,30.05,North,360,4.0,6.0,100,0.00,,,0.02,Rainwise IP-100,2013-12-06 14:32:00,
2013-12-06 09:37:00,50.1,50.0,30.06,ENE,67,2.6,8.0,100,0.00,,,0.02,Rainwise IP-100,2013-12-06 14:37:00,
2013-12-06 09:42:00,49.9,50.0,30.06,NNE,22,0.0,8.0,100,0.00,,,0.02,Rainwise IP-100,2013-12-06 14:42:00,
2013-12-06 09:47:00,49.6,50.0,30.06,NE,45,4.4,7.0,100,0.00,,,0.02,Rainwise IP-100,2013-12-06 14:47:00,
2013-12-06 09:52:00,49.5,50.0,30.06,NNW,337,0.0,4.0,100,0.00,,,0.02,Rainwise IP-100,2013-12-06 14:52:00,
2013-12-06 09:57:00,49.4,49.0,30.06,ENE,67,1.4,2.0,100,0.00,,,0.02,Rainwise IP-100,2013-12-06 14:57:00,
2013-12-06 10:02:00,49.3,49.0,30.06,NNE,22,0.0,3.0,100,0.00,,,0.02,Rainwise IP-100,2013-12-06 15:02:00,
2013-12-06 10:07:00,49.2,49.0,30.06,NNW,337,3.0,8.0,100,0.00,,,0.02,Rainwise IP-100,2013-12-06 15:07:00,
2013-12-06 10:12:00,49.1,49.0,30.06,NNW,337,2.3,5.0,100,0.06,,,0.03,Rainwise IP-100,2013-12-06 15:12:00,
2013-12-06 10:17:00,49.1,49.0,30.06,NNW,337,5.8,6.0,100,0.06,,,0.03,Rainwise IP-100,2013-12-06 15:17:00,
2013-12-06 10:22:00,48.8,49.0,30.06,NNW,337,4.9,6.0,100,0.00,,,0.03,Rainwise IP-100,2013-12-06 15:22:00,
2013-12-06 10:27:00,48.3,48.0,30.06,NNW,337,5.8,5.8,100,0.00,,,0.03,Rainwise IP-100,2013-12-06 15:27:00,
2013-12-06 10:32:00,47.9,48.0,30.05,NNW,337,3.5,5.0,100,0.00,,,0.03,Rainwise IP-100,2013-12-06 15:32:00,
2013-12-06 10:37:00,47.7,47.0,30.05,NNW,337,4.4,5.0,100,0.00,,,0.03,Rainwise IP-100,2013-12-06 15:37:00,
2013-12-06 10:42:00,47.8,47.0,30.04,NNW,337,1.2,5.0,100,0.00,,,0.03,Rainwise IP-100,2013-12-06 15:42:00,
2013-12-06 10:47:00,48.0,48.0,30.05,North,360,3.5,6.0,100,0.00,,,0.03,Rainwise IP-100,2013-12-06 15:47:00,
2013-12-06 10:52:00,48.2,48.0,30.05,NNW,337,3.3,7.0,100,0.00,,,0.03,Rainwise IP-100,2013-12-06 15:52:00,
2013-12-06 10:57:00,48.3,48.0,30.05,WNW,292,2.1,8.0,100,0.00,,,0.03,Rainwise IP-100,2013-12-06 15:57:00,
2013-12-06 11:02:00,48.3,48.0,30.06,NNW,337,5.6,11.0,100,0.00,,,0.03,Rainwise IP-100,2013-12-06 16:02:00,
2013-12-06 11:07:00,48.2,48.0,30.06,NNW,337,2.1,8.0,100,0.00,,,0.03,Rainwise IP-100,2013-12-06 16:07:00,
2013-12-06 11:12:00,48.0,48.0,30.06,NNW,337,6.3,8.0,99,0.00,,,0.03,Rainwise IP-100,2013-12-06 16:12:00,
2013-12-06 11:17:00,47.7,47.0,30.07,NNE,22,2.8,9.0,99,0.00,,,0.03,Rainwise IP-100,2013-12-06 16:17:00,
2013-12-06 11:22:00,47.7,47.0,30.06,North,360,4.4,11.0,99,0.00,,,0.03,Rainwise IP-100,2013-12-06 16:22:00,
2013-12-06 11:27:00,47.6,47.0,30.06,NNE,22,5.4,11.0,99,0.00,,,0.03,Rainwise IP-100,2013-12-06 16:27:00,
2013-12-06 11:32:00,47.4,47.0,30.06,North,360,7.7,12.0,99,0.00,,,0.03,Rainwise IP-100,2013-12-06 16:32:00,
2013-12-06 11:37:00,47.3,47.0,30.06,North,360,2.8,10.0,99,0.00,,,0.03,Rainwise IP-100,2013-12-06 16:37:00,
2013-12-06 11:42:00,47.3,46.0,30.05,NNW,337,6.5,9.0,98,0.00,,,0.03,Rainwise IP-100,2013-12-06 16:42:00,
2013-12-06 11:47:00,47.2,46.0,30.06,NNW,337,6.5,7.0,98,0.00,,,0.03,Rainwise IP-100,2013-12-06 16:47:00,
2013-12-06 11:52:00,47.1,46.0,30.06,NNE,22,7.9,9.0,98,0.00,,,0.03,Rainwise IP-100,2013-12-06 16:52:00,
2013-12-06 11:57:00,47.0,46.0,30.07,NNW,337,6.5,8.0,98,0.00,,,0.03,Rainwise IP-100,2013-12-06 16:57:00,
2013-12-06 12:02:00,46.8,46.0,30.06,NNW,337,2.3,7.0,97,0.00,,,0.03,Rainwise IP-100,2013-12-06 17:02:00,
2013-12-06 12:07:00,46.6,46.0,30.06,NNW,337,3.7,7.0,97,0.06,,,0.04,Rainwise IP-100,2013-12-06 17:07:00,
2013-12-06 12:12:00,46.4,45.0,30.06,NNW,337,3.3,8.0,97,0.06,,,0.04,Rainwise IP-100,2013-12-06 17:12:00,
2013-12-06 12:17:00,46.3,45.0,30.06,NE,45,3.5,8.0,97,0.00,,,0.04,Rainwise IP-100,2013-12-06 17:17:00,
2013-12-06 12:22:00,46.1,45.0,30.06,NNE,22,1.9,10.0,97,0.00,,,0.04,Rainwise IP-100,2013-12-06 17:22:00,
2013-12-06 12:27:00,45.8,45.0,30.06,NNE,22,1.9,9.0,96,0.00,,,0.04,Rainwise IP-100,2013-12-06 17:27:00,
2013-12-06 12:32:00,45.6,45.0,30.07,NNW,337,5.8,11.0,96,0.00,,,0.04,Rainwise IP-100,2013-12-06 17:32:00,
2013-12-06 12:37:00,45.4,44.0,30.07,NNW,337,4.4,9.0,96,0.06,,,0.05,Rainwise IP-100,2013-12-06 17:37:00,
2013-12-06 12:42:00,45.4,44.0,30.07,ENE,67,2.3,8.0,96,0.06,,,0.05,Rainwise IP-100,2013-12-06 17:42:00,
2013-12-06 12:47:00,45.3,44.0,30.07,ENE,67,3.0,10.0,96,0.00,,,0.05,Rainwise IP-100,2013-12-06 17:47:00,
2013-12-06 12:52:00,45.2,44.0,30.07,North,360,6.3,9.0,96,0.00,,,0.05,Rainwise IP-100,2013-12-06 17:52:00,
2013-12-06 12:57:00,45.1,44.0,30.06,NNE,22,1.6,12.0,96,0.00,,,0.05,Rainwise IP-100,2013-12-06 17:57:00,
2013-12-06 13:02:00,44.9,44.0,30.06,NNE,22,6.8,12.0,96,0.00,,,0.05,Rainwise IP-100,2013-12-06 18:02:00,
2013-12-06 13:07:00,44.7,44.0,30.06,NNW,337,3.0,8.0,96,0.00,,,0.05,Rainwise IP-100,2013-12-06 18:07:00,
2013-12-06 13:12:00,44.7,44.0,30.06,North,360,2.1,7.0,96,0.00,,,0.05,Rainwise IP-100,2013-12-06 18:12:00,
2013-12-06 13:17:00,44.7,44.0,30.06,NE,45,0.0,9.0,96,0.00,,,0.05,Rainwise IP-100,2013-12-06 18:17:00,
2013-12-06 13:22:00,44.7,44.0,30.06,North,360,6.1,10.0,95,0.00,,,0.05,Rainwise IP-100,2013-12-06 18:22:00,
2013-12-06 13:27:00,44.6,44.0,30.06,NNE,22,4.7,9.0,95,0.00,,,0.05,Rainwise IP-100,2013-12-06 18:27:00,
2013-12-06 13:32:00,44.6,44.0,30.08,NNW,337,9.1,10.0,95,0.00,,,0.05,Rainwise IP-100,2013-12-06 18:32:00,
2013-12-06 13:37:00,44.6,44.0,30.08,NNW,337,5.8,9.0,95,0.00,,,0.05,Rainwise IP-100,2013-12-06 18:37:00,
2013-12-06 13:42:00,44.6,44.0,30.07,NNW,337,2.1,7.0,95,0.00,,,0.05,Rainwise IP-100,2013-12-06 18:42:00,
2013-12-06 13:47:00,44.6,44.0,30.07,North,360,1.9,8.0,95,0.00,,,0.05,Rainwise IP-100,2013-12-06 18:47:00,
2013-12-06 13:52:00,44.6,44.0,30.08,North,360,2.1,10.0,96,0.00,,,0.05,Rainwise IP-100,2013-12-06 18:52:00,
2013-12-06 13:57:00,44.5,44.0,30.07,NNE,22,1.9,8.0,96,0.00,,,0.05,Rainwise IP-100,2013-12-06 18:57:00,
2013-12-06 14:02:00,44.5,44.0,30.07,NNE,22,1.6,8.0,96,0.00,,,0.05,Rainwise IP-100,2013-12-06 19:02:00,
2013-12-06 14:07:00,44.5,44.0,30.07,NW,315,3.3,7.0,95,0.00,,,0.05,Rainwise IP-100,2013-12-06 19:07:00,
2013-12-06 14:12:00,44.5,44.0,30.08,NNW,337,5.1,9.0,95,0.00,,,0.05,Rainwise IP-100,2013-12-06 19:12:00,
2013-12-06 14:17:00,44.6,44.0,30.08,NW,315,2.8,8.0,95,0.00,,,0.05,Rainwise IP-100,2013-12-06 19:17:00,
2013-12-06 14:22:00,44.6,44.0,30.08,NW,315,3.5,7.0,95,0.00,,,0.05,Rainwise IP-100,2013-12-06 19:22:00,
2013-12-06 14:27:00,44.6,44.0,30.08,NNW,337,1.6,6.0,95,0.00,,,0.05,Rainwise IP-100,2013-12-06 19:27:00,
2013-12-06 14:32:00,44.6,44.0,30.08,NNW,337,2.3,7.0,95,0.00,,,0.05,Rainwise IP-100,2013-12-06 19:32:00,
2013-12-06 14:37:00,44.6,44.0,30.07,NNE,22,3.7,6.0,95,0.00,,,0.05,Rainwise IP-100,2013-12-06 19:37:00,
2013-12-06 14:42:00,44.5,44.0,30.08,NNW,337,6.3,6.3,95,0.00,,,0.05,Rainwise IP-100,2013-12-06 19:42:00,
2013-12-06 14:47:00,44.5,44.0,30.07,NNE,22,1.9,6.0,95,0.00,,,0.05,Rainwise IP-100,2013-12-06 19:47:00,
2013-12-06 14:52:00,44.5,44.0,30.07,ENE,67,0.0,4.0,95,0.00,,,0.05,Rainwise IP-100,2013-12-06 19:52:00,
2013-12-06 14:57:00,44.4,43.0,30.08,NNE,22,1.9,4.0,95,0.00,,,0.05,Rainwise IP-100,2013-12-06 19:57:00,
2013-12-06 15:02:00,44.4,43.0,30.09,NNW,337,3.7,7.0,95,0.00,,,0.05,Rainwise IP-100,2013-12-06 20:02:00,
2013-12-06 15:07:00,44.4,43.0,30.09,NNE,22,2.6,7.0,96,0.00,,,0.05,Rainwise IP-100,2013-12-06 20:07:00,
2013-12-06 15:12:00,44.4,43.0,30.09,NW,315,3.7,6.0,95,0.00,,,0.05,Rainwise IP-100,2013-12-06 20:12:00,
2013-12-06 15:17:00,44.3,43.0,30.08,North,360,2.6,7.0,95,0.06,,,0.06,Rainwise IP-100,2013-12-06 20:17:00,
2013-12-06 15:22:00,44.2,43.0,30.08,North,360,0.0,6.0,96,0.06,,,0.06,Rainwise IP-100,2013-12-06 20:22:00,
2013-12-06 15:27:00,44.1,43.0,30.09,NNE,22,0.0,4.0,96,0.00,,,0.06,Rainwise IP-100,2013-12-06 20:27:00,
2013-12-06 15:32:00,44.0,43.0,30.09,NNW,337,0.0,4.0,96,0.00,,,0.06,Rainwise IP-100,2013-12-06 20:32:00,
2013-12-06 15:37:00,44.0,43.0,30.09,NNW,337,2.8,4.0,96,0.00,,,0.06,Rainwise IP-100,2013-12-06 20:37:00,
2013-12-06 15:42:00,44.0,43.0,30.10,NNW,337,0.0,3.0,96,0.00,,,0.06,Rainwise IP-100,2013-12-06 20:42:00,
2013-12-06 15:47:00,44.1,43.0,30.10,NNW,337,0.0,4.0,96,0.06,,,0.07,Rainwise IP-100,2013-12-06 20:47:00,
2013-12-06 15:52:00,44.1,43.0,30.11,NNW,337,1.4,3.0,96,0.06,,,0.07,Rainwise IP-100,2013-12-06 20:52:00,
2013-12-06 15:57:00,44.1,43.0,30.11,NNE,22,2.8,4.0,96,0.06,,,0.08,Rainwise IP-100,2013-12-06 20:57:00,
2013-12-06 16:02:00,44.1,43.0,30.10,NNW,337,0.0,4.0,96,0.06,,,0.08,Rainwise IP-100,2013-12-06 21:02:00,
2013-12-06 16:07:00,44.0,43.0,30.10,NNE,22,2.8,6.0,97,0.00,,,0.08,Rainwise IP-100,2013-12-06 21:07:00,
2013-12-06 16:12:00,43.9,43.0,30.11,NNW,337,3.0,3.0,97,0.00,,,0.08,Rainwise IP-100,2013-12-06 21:12:00,
2013-12-06 16:17:00,43.8,43.0,30.11,NNE,22,1.9,4.0,97,0.00,,,0.08,Rainwise IP-100,2013-12-06 21:17:00,
2013-12-06 16:22:00,43.7,43.0,30.11,NNW,337,1.6,4.0,97,0.00,,,0.08,Rainwise IP-100,2013-12-06 21:22:00,
2013-12-06 16:27:00,43.7,43.0,30.10,North,360,1.4,7.0,97,0.00,,,0.08,Rainwise IP-100,2013-12-06 21:27:00,
2013-12-06 16:32:00,43.7,43.0,30.11,NNW,337,2.6,5.0,97,0.00,,,0.08,Rainwise IP-100,2013-12-06 21:32:00,
2013-12-06 16:37:00,43.6,43.0,30.10,NNE,22,2.6,4.0,97,0.00,,,0.08,Rainwise IP-100,2013-12-06 21:37:00,
2013-12-06 16:42:00,43.5,43.0,30.09,NE,45,3.5,4.0,97,0.00,,,0.08,Rainwise IP-100,2013-12-06 21:42:00,
2013-12-06 16:47:00,43.5,43.0,30.10,NNE,22,0.0,3.0,97,0.00,,,0.08,Rainwise IP-100,2013-12-06 21:47:00,
2013-12-06 16:52:00,43.6,43.0,30.11,NNW,337,2.8,2.8,97,0.00,,,0.08,Rainwise IP-100,2013-12-06 21:52:00,
2013-12-06 16:57:00,43.5,43.0,30.10,NNW,337,2.8,4.0,97,0.00,,,0.08,Rainwise IP-100,2013-12-06 21:57:00,
2013-12-06 17:02:00,43.5,43.0,30.10,NNE,22,2.1,3.0,97,0.00,,,0.08,Rainwise IP-100,2013-12-06 22:02:00,
2013-12-06 17:07:00,43.5,43.0,30.09,NNE,22,2.1,5.0,97,0.00,,,0.08,Rainwise IP-100,2013-12-06 22:07:00,
2013-12-06 17:12:00,43.5,43.0,30.10,NE,45,1.6,6.0,97,0.00,,,0.08,Rainwise IP-100,2013-12-06 22:12:00,
2013-12-06 17:17:00,43.5,43.0,30.09,North,360,2.6,12.0,97,0.00,,,0.08,Rainwise IP-100,2013-12-06 22:17:00,
2013-12-06 17:22:00,43.4,42.0,30.10,North,360,3.3,9.0,97,0.00,,,0.08,Rainwise IP-100,2013-12-06 22:22:00,
2013-12-06 17:27:00,43.2,42.0,30.10,NNE,22,3.5,6.0,97,0.00,,,0.08,Rainwise IP-100,2013-12-06 22:27:00,
2013-12-06 17:32:00,43.0,42.0,30.10,NNE,22,4.9,6.0,97,0.00,,,0.08,Rainwise IP-100,2013-12-06 22:32:00,
2013-12-06 17:37:00,42.9,42.0,30.10,North,360,1.2,6.0,97,0.00,,,0.08,Rainwise IP-100,2013-12-06 22:37:00,
2013-12-06 17:42:00,42.8,42.0,30.11,NNE,22,0.0,7.0,97,0.00,,,0.08,Rainwise IP-100,2013-12-06 22:42:00,
2013-12-06 17:47:00,42.7,42.0,30.11,NNE,22,3.0,6.0,97,0.00,,,0.08,Rainwise IP-100,2013-12-06 22:47:00,
2013-12-06 17:52:00,42.7,42.0,30.12,NNW,337,7.0,7.0,96,0.00,,,0.08,Rainwise IP-100,2013-12-06 22:52:00,
2013-12-06 17:57:00,42.7,42.0,30.13,NNW,337,5.4,7.0,96,0.00,,,0.08,Rainwise IP-100,2013-12-06 22:57:00,
2013-12-06 18:02:00,42.6,42.0,30.13,NNE,22,4.4,7.0,96,0.00,,,0.08,Rainwise IP-100,2013-12-06 23:02:00,
2013-12-06 18:07:00,42.6,42.0,30.12,NNW,337,3.0,6.0,96,0.00,,,0.08,Rainwise IP-100,2013-12-06 23:07:00,
2013-12-06 18:12:00,42.6,42.0,30.11,North,360,4.2,5.0,96,0.00,,,0.08,Rainwise IP-100,2013-12-06 23:12:00,
2013-12-06 18:17:00,42.6,42.0,30.11,North,360,1.6,6.0,95,0.00,,,0.08,Rainwise IP-100,2013-12-06 23:17:00,
2013-12-06 18:22:00,42.6,42.0,30.12,North,360,6.1,7.0,95,0.00,,,0.08,Rainwise IP-100,2013-12-06 23:22:00,
2013-12-06 18:27:00,42.5,42.0,30.13,North,360,7.0,8.0,95,0.00,,,0.08,Rainwise IP-100,2013-12-06 23:27:00,
2013-12-06 18:32:00,42.5,41.0,30.13,NNW,337,3.5,8.0,94,0.00,,,0.08,Rainwise IP-100,2013-12-06 23:32:00,
2013-12-06 18:37:00,42.5,41.0,30.13,NNW,337,7.5,7.5,94,0.00,,,0.08,Rainwise IP-100,2013-12-06 23:37:00,
2013-12-06 18:42:00,42.4,40.0,30.11,North,360,3.0,11.0,94,0.00,,,0.08,Rainwise IP-100,2013-12-06 23:42:00,
2013-12-06 18:47:00,42.4,40.0,30.12,NNE,22,3.5,10.0,94,0.00,,,0.08,Rainwise IP-100,2013-12-06 23:47:00,
2013-12-06 18:52:00,42.3,40.0,30.12,NE,45,2.6,7.0,94,0.00,,,0.08,Rainwise IP-100,2013-12-06 23:52:00,
2013-12-06 18:57:00,42.2,40.0,30.12,NNE,22,3.7,6.0,94,0.00,,,0.08,Rainwise IP-100,2013-12-06 23:57:00,
2013-12-06 19:02:00,42.0,40.0,30.13,North,360,1.6,6.0,94,0.06,,,0.09,Rainwise IP-100,2013-12-07 00:02:00,
2013-12-06 19:07:00,41.9,40.0,30.14,North,360,2.1,7.0,94,0.06,,,0.09,Rainwise IP-100,2013-12-07 00:07:00,
2013-12-06 19:12:00,41.9,40.0,30.16,NNW,337,5.8,7.0,94,0.00,,,0.09,Rainwise IP-100,2013-12-07 00:12:00,
2013-12-06 19:17:00,41.9,40.0,30.16,North,360,8.6,11.0,94,0.06,,,0.10,Rainwise IP-100,2013-12-07 00:17:00,
2013-12-06 19:22:00,41.9,40.0,30.16,North,360,0.0,8.0,94,0.12,,,0.11,Rainwise IP-100,2013-12-07 00:22:00,
2013-12-06 19:27:00,41.8,40.0,30.15,ENE,67,4.2,8.0,94,0.18,,,0.13,Rainwise IP-100,2013-12-07 00:27:00,
2013-12-06 19:32:00,41.6,41.0,30.15,NNE,22,3.5,8.0,95,0.24,,,0.15,Rainwise IP-100,2013-12-07 00:32:00,
2013-12-06 19:37:00,41.5,41.0,30.14,East,90,1.6,8.0,95,0.18,,,0.16,Rainwise IP-100,2013-12-07 00:37:00,
2013-12-06 19:42:00,41.3,40.0,30.14,ENE,67,6.1,7.0,95,0.06,,,0.16,Rainwise IP-100,2013-12-07 00:42:00,
2013-12-06 19:47:00,41.1,40.0,30.14,NNE,22,4.0,10.0,95,0.00,,,0.16,Rainwise IP-100,2013-12-07 00:47:00,
2013-12-06 19:52:00,41.0,40.0,30.15,ENE,67,3.3,9.0,96,0.00,,,0.16,Rainwise IP-100,2013-12-07 00:52:00,
2013-12-06 19:57:00,41.0,40.0,30.15,NNE,22,1.2,7.0,96,0.00,,,0.16,Rainwise IP-100,2013-12-07 00:57:00,
2013-12-06 20:02:00,40.9,40.0,30.14,NE,45,2.3,6.0,96,0.00,,,0.16,Rainwise IP-100,2013-12-07 01:02:00,
2013-12-06 20:07:00,40.9,40.0,30.15,NNW,337,2.6,9.0,96,0.06,,,0.17,Rainwise IP-100,2013-12-07 01:07:00,
2013-12-06 20:12:00,40.9,40.0,30.16,NNE,22,2.3,7.0,96,0.06,,,0.17,Rainwise IP-100,2013-12-07 01:12:00,
2013-12-06 20:17:00,40.9,40.0,30.16,North,360,1.2,9.0,96,0.06,,,0.18,Rainwise IP-100,2013-12-07 01:17:00,
2013-12-06 20:22:00,40.8,40.0,30.16,NNE,22,5.4,10.0,97,0.06,,,0.18,Rainwise IP-100,2013-12-07 01:22:00,
2013-12-06 20:27:00,40.7,40.0,30.15,NE,45,2.6,9.0,97,0.06,,,0.19,Rainwise IP-100,2013-12-07 01:27:00,
2013-12-06 20:32:00,40.4,39.0,30.15,NNW,337,6.3,8.0,96,0.06,,,0.19,Rainwise IP-100,2013-12-07 01:32:00,
2013-12-06 20:37:00,40.1,39.0,30.17,NNE,22,4.4,9.0,96,0.00,,,0.19,Rainwise IP-100,2013-12-07 01:37:00,
2013-12-06 20:42:00,39.8,39.0,30.16,NNW,337,5.4,11.0,96,0.06,,,0.20,Rainwise IP-100,2013-12-07 01:42:00,
2013-12-06 20:47:00,39.6,39.0,30.16,ENE,67,7.0,10.0,96,0.12,,,0.21,Rainwise IP-100,2013-12-07 01:47:00,
2013-12-06 20:52:00,39.5,39.0,30.16,ENE,67,4.0,11.0,96,0.06,,,0.21,Rainwise IP-100,2013-12-07 01:52:00,
2013-12-06 20:57:00,39.4,38.0,30.17,NNE,22,2.1,10.0,96,0.06,,,0.22,Rainwise IP-100,2013-12-07 01:57:00,
2013-12-06 21:02:00,39.2,38.0,30.17,NNE,22,2.3,9.0,96,0.06,,,0.22,Rainwise IP-100,2013-12-07 02:02:00,
2013-12-06 21:07:00,39.2,38.0,30.18,NNW,337,3.3,7.0,96,0.06,,,0.23,Rainwise IP-100,2013-12-07 02:07:00,
2013-12-06 21:12:00,39.2,38.0,30.18,ENE,67,7.2,9.0,96,0.06,,,0.23,Rainwise IP-100,2013-12-07 02:12:00,
2013-12-06 21:17:00,39.3,38.0,30.18,NNE,22,2.8,9.0,97,0.00,,,0.23,Rainwise IP-100,2013-12-07 02:17:00,
2013-12-06 21:22:00,39.4,38.0,30.18,NNE,22,5.1,5.1,97,0.06,,,0.24,Rainwise IP-100,2013-12-07 02:22:00,
2013-12-06 21:27:00,39.4,38.0,30.20,North,360,5.6,10.0,97,0.06,,,0.24,Rainwise IP-100,2013-12-07 02:27:00,
2013-12-06 21:32:00,39.4,38.0,30.19,NNE,22,3.0,10.0,97,0.06,,,0.25,Rainwise IP-100,2013-12-07 02:32:00,
2013-12-06 21:37:00,39.5,39.0,30.18,ENE,67,4.2,10.0,97,0.12,,,0.26,Rainwise IP-100,2013-12-07 02:37:00,
2013-12-06 21:42:00,39.4,39.0,30.17,NNW,337,1.2,10.0,98,0.12,,,0.27,Rainwise IP-100,2013-12-07 02:42:00,
2013-12-06 21:47:00,39.3,39.0,30.19,North,360,3.0,11.0,98,0.12,,,0.28,Rainwise IP-100,2013-12-07 02:47:00,
2013-12-06 21:52:00,39.2,39.0,30.17,ENE,67,3.5,10.0,98,0.06,,,0.28,Rainwise IP-100,2013-12-07 02:52:00,
2013-12-06 21:57:00,39.1,39.0,30.16,North,360,4.9,7.0,98,0.06,,,0.29,Rainwise IP-100,2013-12-07 02:57:00,
2013-12-06 22:02:00,38.9,39.0,30.16,NNE,22,2.1,16.0,98,0.12,,,0.30,Rainwise IP-100,2013-12-07 03:02:00,
2013-12-06 22:07:00,38.7,39.0,30.15,NNE,22,7.9,14.0,98,0.06,,,0.30,Rainwise IP-100,2013-12-07 03:07:00,
2013-12-06 22:12:00,38.6,39.0,30.15,ESE,112,11.0,11.0,98,0.00,,,0.30,Rainwise IP-100,2013-12-07 03:12:00,
2013-12-06 22:17:00,38.5,39.0,30.14,NE,45,7.7,12.0,98,0.06,,,0.31,Rainwise IP-100,2013-12-07 03:17:00,
2013-12-06 22:22:00,38.5,39.0,30.14,ENE,67,1.4,11.0,98,0.06,,,0.31,Rainwise IP-100,2013-12-07 03:22:00,
2013-12-06 22:27:00,38.5,39.0,30.14,NNE,22,4.2,7.0,98,0.00,,,0.31,Rainwise IP-100,2013-12-07 03:27:00,
2013-12-06 22:32:00,38.6,39.0,30.15,NE,45,4.7,9.0,98,0.00,,,0.31,Rainwise IP-100,2013-12-07 03:32:00,
2013-12-06 22:37:00,38.5,39.0,30.15,ENE,67,5.8,14.0,98,0.00,,,0.31,Rainwise IP-100,2013-12-07 03:37:00,
2013-12-06 22:42:00,38.4,38.0,30.16,ENE,67,4.7,8.0,98,0.00,,,0.31,Rainwise IP-100,2013-12-07 03:42:00,
2013-12-06 22:47:00,38.4,38.0,30.16,ENE,67,5.8,9.0,98,0.06,,,0.32,Rainwise IP-100,2013-12-07 03:47:00,
2013-12-06 22:52:00,38.4,38.0,30.16,NNE,22,7.9,7.9,98,0.06,,,0.32,Rainwise IP-100,2013-12-07 03:52:00,
2013-12-06 22:57:00,38.4,38.0,30.16,NNE,22,4.2,10.0,98,0.06,,,0.33,Rainwise IP-100,2013-12-07 03:57:00,
2013-12-06 23:02:00,38.5,39.0,30.16,ENE,67,4.0,8.0,98,0.12,,,0.34,Rainwise IP-100,2013-12-07 04:02:00,
2013-12-06 23:07:00,38.5,39.0,30.16,NNE,22,4.7,8.0,98,0.12,,,0.35,Rainwise IP-100,2013-12-07 04:07:00,
2013-12-06 23:12:00,38.4,38.0,30.17,NE,45,3.7,10.0,98,0.12,,,0.36,Rainwise IP-100,2013-12-07 04:12:00,
2013-12-06 23:17:00,38.4,38.0,30.17,ENE,67,5.1,10.0,98,0.06,,,0.36,Rainwise IP-100,2013-12-07 04:17:00,
2013-12-06 23:22:00,38.4,38.0,30.17,NNE,22,4.9,8.0,98,0.00,,,0.36,Rainwise IP-100,2013-12-07 04:22:00,
2013-12-06 23:27:00,38.4,38.0,30.16,NNE,22,9.3,9.3,98,0.06,,,0.37,Rainwise IP-100,2013-12-07 04:27:00,
2013-12-06 23:32:00,38.4,38.0,30.16,ENE,67,4.4,13.0,98,0.06,,,0.37,Rainwise IP-100,2013-12-07 04:32:00,
2013-12-06 23:37:00,38.3,38.0,30.16,NE,45,4.7,7.0,98,0.00,,,0.37,Rainwise IP-100,2013-12-07 04:37:00,
2013-12-06 23:42:00,38.3,38.0,30.17,NNW,337,3.3,9.0,98,0.00,,,0.37,Rainwise IP-100,2013-12-07 04:42:00,
2013-12-06 23:47:00,38.3,38.0,30.16,NE,45,6.8,10.0,98,0.06,,,0.38,Rainwise IP-100,2013-12-07 04:47:00,
2013-12-06 23:52:00,38.2,38.0,30.16,NNE,22,4.4,11.0,98,0.06,,,0.38,Rainwise IP-100,2013-12-07 04:52:00,
2013-12-06 23:57:00,38.1,38.0,30.16,North,360,0.0,12.0,98,0.06,,,0.39,Rainwise IP-100,2013-12-07 04:57:00,